Погода Боковская

Погода Боковская : погода сейчас, прогноз погоды и архив. Всё, что Вы хотите узнать о погоде Боковская!

Хотите узнать прогноз погоды Боковская? Тогда Вам сюда: Погода Боковская

Поиск расширенной информации на нашем сайте:

Другие новости

Новости СМИ2

Главная страница сайта

Новости сайта

03.07.2017

Напоминаем, что на нашем специализированном сайте Метеоцентр.Азия вы можете получить высокодетализированные автоматические прогнозы погоды по пунктам России, СНГ и мира в авиационном формате (включающие направление и скорость ветра, видимость, явления погоды, количество и форму облачности, нижнюю и верхнюю границу облачности).

Рекомендуем: Tom Ford Amber Absolute парфюм

Погода Боковская - сегодня

Время (UTC), дата Ветер
(°,м/с) 
Видим.   Явления Облачность Т
(°С)
Тd
(°С)
f(%) Тe
(°С)
Pmin
(гПа)
dP
(гПа)
Po
(мм)
O2
(г/м3)
Тmin Tmax R s Состояние
почвы
18 19.07.17 020 (С) 20000 м    8/0 верхняя 
[Ci fib]
+21.2 +10.3 50 +23  1013.8  0.6  752  279           
21 19.07.17 280 (З) 20000 м    ясно 
+16.1 +10.8 71 +19  1013.4  -0.6  752  284           
00 20.07.17 270 (З) 20000 м    ясно 
+14.4 +11 80 +17  1013.1  -0.4  752  286           
03 20.07.17 280 (З) 20000 м    5/0 верхняя 
[Ci fib]
+15.4 +11.6 78 +19  1012.5  -0.6  751  284  +12.7        сухая 
06 20.07.17 360 (С) 6-11{12}  20000 м    9/0 верхняя 
[Ci fib]
+24.2 +12.3 47 +29  1012.1  0.1  751  276           
09 20.07.17 350 (С) 5{13}  20000 м    8/0 средняя, верхняя 
[Ac cast|Ci sp]
+26.9 +10.3 35 +28  1011.2  -0.8  751  273           
12 20.07.17 010 (С) 5{12}  20000 м    9/0 средняя, верхняя 
[Ac As|Ci sp]
+27.7 +10.8 35 +30  1010.4  -0.7  750  272           
15 20.07.17 020 (С) 4{10}  20000 м    9/0 средняя, верхняя 
[Ac cast|Ci sp]
+28.2 +10.2 33 +30  1010.2  -0.2  750  272    +28.9       
18 20.07.17 310 (СЗ) 20000 м    8/0 средняя 
[Ac As]
+21.9 +12.6 56 +27  1011.5  751  278           
21 20.07.17 290 (З) 20000 м    ясно 
+19 +12.7 67 +25  1011.8  0.2  751  280           
00 21.07.17 290 (З) 20000 м    3/0 средняя 
[Ac As]
+16.8 +13.3 80 +24  1011.8  0.2  751  282           
03 21.07.17 290 (З) 20000 м    8/0 средняя, верхняя 
[Ac As|Ci fib]
+16.3 +13.4 83 +23  1013  1.1  752  283  +14.8        сухая 
06 21.07.17 340 (С) 20000 м    8/0 средняя, верхняя 
[Ac As|Ci fib]
+23.3 +14.3 57 +31  1013.6  0.7  752  276           
09 21.07.17 330 (СЗ) 20000 м    8/1 600 м средняя, верхняя 
[Cu hum|Ac As|Ci fib]
+27.8 +11.5 36 +31  1013.8  0.4  752  273           
12 21.07.17 320 (СЗ) 4{11}  20000 м    3/1 600 м верхняя 
[Cu hum|Ci sp]
+29.8 +8.5 26 +30  1013.4  -0.3  752  272           
15 21.07.17 300 (СЗ) 20000 м    ясно 
+28.9 +7.1 25 +29  1013.3  -0.2  752  273    +29.9       
18 21.07.17 270 (З) 20000 м    1/0 средняя 
[Ac lent]
+19.1 +11 59 +23  1015  1.4  753  282           
21 21.07.17 тихо ()   20000 м    1/0 средняя 
[Ac As]
+13.3 +10.3 82 +15  1015.5  0.3  753  288           
00 22.07.17 тихо ()   20000 м    ясно 
+11 +9.3 89 +11  1015.8  0.2  754  290           
03 22.07.17 300 (СЗ) 20000 м    ясно 
+12.9 +9.9 82 +15  1016.5  0.7  754  288  +10        частично
покрыта
пылью 
06 22.07.17 120 (ЮВ) 20000 м    ясно 
+26.8 +12.9 42 +32  1015.9  754  274           
09 22.07.17 150 (ЮВ) 20000 м    ясно 
+31.1 +6.8 22 +31  1015.2  -0.6  754  272           
12 22.07.17 100 (В) 20000 м    ясно 
+32.8 +8.4 22 +33  1013.6  -1.5  752  269           
15 22.07.17 130 (ЮВ) 20000 м    1/0 верхняя 
[Ci fib]
+33.1 +9 23 +33  1012.9  -0.7  752  269    +33.7       
18 22.07.17 тихо ()   20000 м    6/0 средняя, верхняя 
[Ac lent|Ci fib]
+20.8 +15.4 71 +30  1013.3  752  278           
Время (UTC), дата Ветер
(°,м/с) 
Видим.   Явления Облачность Т
(°С)
Тd
(°С)
f(%) Тe
(°С)
Pmin
(гПа)
dP
(гПа)
Po
(мм)
O2
(г/м3)
Тmin Tmax R s Состояние
почвы

Для получения пояснительной информации подведите курсор к названию столбца.

ПОГОДА Боковская - архив

Всё, что Вы хотите узнать о погоде Боковская - удобно и подробно!

Выберите нужную дату (начиная с 1 января 2015* года) и нажмите кнопку "Найти".
Будут отображены архивные сводки погоды по пункту Боковская, начиная с указанной даты.


Отображать данные в формате CSV (для использования в таблицах Excel)


Внимание! Наш архив погоды предназначен исключительно для личного некоммерческого использования в познавательных целях. Если Вам необходимы официальные справки о состоянии погоды (для производственных, юридических, коммерческих и т.п. целей), обращайтесь в органы Росгидромета.

*Примечание: данная дата относится к архиву по метеостанциям СССР (Россия, СНГ, Балтия).
Архив по метеостанциям Зарубежной Европы и Азии (кроме Китая) хранится 10 дней, по другим регионам земного шара (Китай, Африка, Америка, Австралия, Океания) - 1 день.

Боковская - район местоположения метеостанции


Название, широта, долгота, высота метеостанции:
Боковская 49.2°ш. 41.8°д. 91 м над ур. моря [Российская Федерация]

Дополнительная информация

В oтличие oт бoльшинства пoгoдных сайтoв мы публикуем пoдрoбную метеoинфoрмацию в детальнoм прoфессиoнальнoм фoрмате.

Характеристики температуры и влажнoсти вoздуха измеряются на высoте 2 м в тени вдали oт зданий и деревьев.
Скoрoсть ветра измеряется на высoте 10 м (на урoвне рoста челoвека скoрoсть ветра ниже в 1.5-2 раза). Если метеoстанция нахoдится в гoрoде или в лесу, тo скoрoсть ветра занижена на 2-4 м/с пo сравнению с oткрытым местoм. Скoрoсть ветра над акватoриями крупных рек и oзёр, а также на вершинах хoлмoв на 2-5 м/с выше, чем в oбычных услoвиях.
Атмoсфернoе давление в разных тoчках местнoсти мoжет значительнo oтличаться oт давления на метеoстанции, в зависимoсти oт услoвий рельефа (при пoдъёме на 10 м давление пoнижается примернo на 1 мм рт.ст.).